Location: G�ndlingen
(48.0142°N, 7.6396°E)
Time: 19:18:22
(UTC+00:00)

Cosmos 1680 Rocket - Pass Details

Date: 05 July 2020
Orbit: 760 x 781 km, 74.1° (Epoch: 11 August)

Event Time Altitude Azimuth Distance (km) Brightness Sun altitude
Exits shadow 21:35:39 22° 154° (SSE) 1,649 4.6 -14.5°
Maximum altitude 21:38:22 37° 102° (ESE) 1,206 4.2 -14.7°
Drops below altitude 10° 21:43:13 10° 37° (NE) 2,345 6.4 -15.1°
Sets 21:45:46 0° 29° (NNE) 3,277 7.3 -15.2°
